User: anonymous
Location: Unspecified
(0.0000°N, 0.0000°E)
Time: 22:52:50
(UTC+00:00)
Language:

Optus B3 - Orbit

View from above orbital plane
View from above orbital plane
View from above satellite
View from above satellite

Ground track
Ground track

The orbit data is extracted from the following two-line orbital elements,

1 23227U 94055A   14109.62513975 -.00000088  00000-0  10000-3 0  4437
2 23227 005.4165 059.8474 0003686 313.5087 223.3362 01.00272692 71914
Epoch (UTC): 19 April 2014 15:00:12
Eccentricity: 0.0003686
inclination: 5.4165°
perigee height: 35770 km
apogee height: 35801 km
right ascension of ascending node: 59.8474°
argument of perigee: 313.5087°
revolutions per day: 1.00272692
mean anomaly at epoch: 223.3362°
orbit number at epoch: 7191

The dashed part of the orbit path shows where the satellite is in the earth's shadow,  

DLR